sat.trackr.live / text

‹ back to catalog

STARLINK-32260

NORAD 61522 · 2024-183P

PAYLOAD ACTIVE UNKNOWN

§ Identity

Operator
Country
US
Launch date
2024-10-15
Launch site
AFETR
Launch vehicle
Mass (kg)
RCS (m²)

Purposes: comms

External: N2YO · Heavens-Above · Gunter

§ Orbital elements

Epoch: 2026-09-20T11:00:08.758080Z

Period
93.41 min
Inclination
53.1561°
Eccentricity
0.0006044
Mean motion
15.41533159 rev/d
Perigee alt
437.5 km
Apogee alt
445.7 km
Semi-major
6,819.7 km
B*
1.3959e-3
RAAN
313.3958°
Arg perigee
352.9040°
Mean anomaly
7.1879°
Rev number
10,953

§ Raw data

STARLINK-322601 61522U 24183P   26263.45843470  .00059569  00000+0  13959-2 0  99902 61522  53.1561 313.3958 0006044 352.9040   7.1879 15.41533159109535

JSON: /api/v1/satellites/61522 · /tle

For live sub-satellite position, see the globe view (requires WebGL).

§ Visibility from observer

Set your observer location to see the next 7 days of passes ≥ 10°. The values pass through the URL so the page stays shareable.

No JS? Fill the form by hand. The geolocation button needs JavaScript.